This is the latest recevied weather packets stored in our database for station/object KC5DAQ-22. If no packets are shown the sender has not sent any weather packets the latest 1 day(s).
| Time | Temp. | Humidity | Pressure | Rain* | Wind** | Luminosity | Snow |
|---|---|---|---|---|---|---|---|
| 1777977899 | 22.78° C | 90% | 1006.8 hPa | 0 mm | 1.79 m/s, 44° | 0 W/m² | - |
| 1777977840 | 22.78° C | 90% | 1006.8 hPa | 0 mm | 1.34 m/s, 44° | 0 W/m² | - |
| 1777977781 | 22.78° C | 90% | 1006.8 hPa | 0 mm | 0.89 m/s, 47° | 0 W/m² | - |
| 1777977719 | 22.78° C | 90% | 1006.8 hPa | 0 mm | 1.34 m/s, 35° | 0 W/m² | - |
| 1777977660 | 22.78° C | 90% | 1006.8 hPa | 0 mm | 1.79 m/s, 37° | 0 W/m² | - |
| 1777977599 | 22.78° C | 90% | 1006.8 hPa | 0 mm | 1.79 m/s, 38° | 0 W/m² | - |
| 1777977539 | 22.78° C | 90% | 1006.7 hPa | 0 mm | 1.79 m/s, 47° | 0 W/m² | - |
| 1777977481 | 22.78° C | 90% | 1006.8 hPa | 0 mm | 1.79 m/s, 0° | 0 W/m² | - |
| 1777977419 | 22.78° C | 90% | 1006.8 hPa | 0 mm | 1.79 m/s, 42° | 0 W/m² | - |
| 1777977359 | 22.78° C | 90% | 1006.8 hPa | 0 mm | 1.34 m/s, 32° | 0 W/m² | - |
| 1777977301 | 22.78° C | 90% | 1006.8 hPa | 0 mm | 1.79 m/s, 38° | 0 W/m² | - |
| 1777977239 | 22.78° C | 90% | 1006.8 hPa | 0 mm | 1.79 m/s, 47° | 0 W/m² | - |
| 1777977179 | 22.78° C | 90% | 1006.9 hPa | 0 mm | 1.34 m/s, 28° | 0 W/m² | - |
| 1777977119 | 22.78° C | 90% | 1006.8 hPa | 0 mm | 0.89 m/s, 44° | 0 W/m² | - |
| 1777977061 | 22.78° C | 90% | 1006.8 hPa | 0 mm | 0.89 m/s, 45° | 0 W/m² | - |
| 1777976999 | 22.78° C | 90% | 1006.7 hPa | 0 mm | 1.34 m/s, 38° | 0 W/m² | - |
| 1777976939 | 22.78° C | 90% | 1006.7 hPa | 0 mm | 1.79 m/s, 45° | 0 W/m² | - |
| 1777976880 | 22.78° C | 90% | 1006.6 hPa | 0 mm | 1.79 m/s, 37° | 0 W/m² | - |
| 1777976819 | 22.78° C | 90% | 1006.7 hPa | 0 mm | 1.34 m/s, 35° | 0 W/m² | - |
| 1777976760 | 22.78° C | 90% | 1006.6 hPa | 0 mm | 1.34 m/s, 31° | 0 W/m² | - |
| 1777976701 | 22.78° C | 90% | 1006.7 hPa | 0 mm | 1.79 m/s, 47° | 0 W/m² | - |
| 1777976640 | 22.78° C | 90% | 1006.6 hPa | 0 mm | 1.79 m/s, 42° | 0 W/m² | - |
| 1777976580 | 22.78° C | 90% | 1006.7 hPa | 0 mm | 1.79 m/s, 47° | 0 W/m² | - |
| 1777976519 | 22.78° C | 90% | 1006.6 hPa | 0 mm | 0.89 m/s, 35° | 0 W/m² | - |
| 1777976461 | 22.78° C | 90% | 1006.6 hPa | 0 mm | 1.79 m/s, 35° | 0 W/m² | - |
* Rain latest hour (hover to see other rain measurements)
** Current wind speed in m/s (hover to see current wind gust speed)